Tracking 27079 objects as of 24-Mar-2023
HD Live streaming from Space Station
objects crossing your sky now

STARLINK-2632

Track STARLINK-2632 now!
10-day predictions
STARLINK-2632 is classified as:


NORAD ID: 48448
Int'l Code: 2021-040W
Perigee: 553.2 km
Apogee: 555.6 km
Inclination: 53.1 °
Period: 95.6 minutes
Semi major axis: 6925 km
RCS: Unknown
Launch date: May 9, 2021
Source: United States (US)
Launch site: AIR FORCE EASTERN TEST RANGE (AFETR)
Your satellite tracking list
Your tracking list is empty




NASA's NSSDC Master Catalog

Two Line Element Set (TLE):
1 48448U 21040W   23082.62882222  .00001586  00000-0  12539-3 0  9995
2 48448  53.0541 359.1767 0001754 123.4853 236.6304 15.06388639104805
Source of the keplerian elements: AFSPC